Regional Weather Roundup
Issued by NWS Little Rock, AR

Home | Current Version | Previous Version | Text Only | Print | Product List | Glossary On
Versions: 1 2 3 4 5 6 7 8 9 10 11 12 13 14 15 16 17 18 19 20 21 22 23 24 25 26 27 28 29 30 31 32 33
000
ASUS44 KLZK 300305
RWRLZK

WEATHER ROUNDUP FOR ARKANSAS
NATIONAL WEATHER SERVICE LITTLE ROCK AR
1000 PM CDT WED MAR 29 2017

NOTE: "FAIR" INDICATES FEW OR NO CLOUDS BELOW 12,000 FEET WITH NO
SIGNIFICANT WEATHER AND/OR OBSTRUCTIONS TO VISIBILITY.

ARZ001-003-010-029-300400-
NORTHWEST ARKANSAS

CITY           SKY/WX    TMP DP  RH WIND       PRES   REMARKS
FAYETTEVILLE   PTCLDY    62  53  72 W9        29.71R
FORT SMITH     PTCLDY    66  53  63 W8        29.69R
HARRISON       CLOUDY    62  61  96 SE8       29.70F
BENTONVILLE    PTCLDY    63  52  67 W9        29.71S
ROGERS         PTCLDY    62  53  72 W9        29.71R
SILOAM SPGS    CLOUDY    63  48  59 W13       29.70S
HIGHFILL       MOCLDY    62  52  69 W14       29.69S
$$

ARZ004-005-016-300400-
NORTH CENTRAL ARKANSAS

CITY           SKY/WX    TMP DP  RH WIND       PRES   REMARKS
BATESVILLE     CLOUDY    73  57  56 SE5       29.72F
FLIPPIN        CLOUDY    64  57  77 CALM      29.68F
MTN HOME       CLOUDY    63  62  97 SW5       29.70F
$$

ARZ040-041-300400-
WEST CENTRAL ARKANSAS

CITY           SKY/WX    TMP DP  RH WIND       PRES   REMARKS
MENA           CLOUDY    66  64  94 CALM      29.71S
MOUNT IDA      LGT RAIN  68  64  87 VRB6G18   29.67F
$$

ARZ009-017-025-026-028-300400-
NORTHEAST ARKANSAS

CITY           SKY/WX    TMP DP  RH WIND       PRES   REMARKS
CORNING        FAIR      73  59  60 S14G21    29.74F
JONESBORO      CLOUDY    71  58  63 S9        29.74F
NEWPORT        CLOUDY    70  61  73 SE13      29.72F
WALNUT RIDGE   CLOUDY    72  57  60 SE18      29.71F
BLYTHEVILLE    PTCLDY    70  58  65 SE7       29.79F
$$

ARZ022-023-033-042-044-300400-
CENTRAL ARKANSAS

CITY           SKY/WX    TMP DP  RH WIND       PRES   REMARKS
LITTLE ROCK    CLOUDY    70  63  78 S8        29.72S
N LITTLE ROCK    N/A     72  63  73 S6        29.72R
JACKSONVILLE   CLOUDY    73  63  70 S6        29.71F
CONWAY           N/A     68  64  88 S7        29.70F FOG
SEARCY         CLOUDY    71  63  75 S8        29.72F
HOT SPRINGS    MOCLDY    67  66  97 VRB3      29.72F
RUSSELLVILLE   PTCLDY    63  62  97 CALM      29.70F
$$

ARZ036-300400-
EAST ARKANSAS

CITY           SKY/WX    TMP DP  RH WIND       PRES   REMARKS
WEST MEMPHIS   CLOUDY    71  58  63 SE7       29.77F
$$

ARZ050-053-066-070-073-300400-
SOUTHWEST ARKANSAS

CITY           SKY/WX    TMP DP  RH WIND       PRES   REMARKS
ARKADELPHIA    FAIR      68  65  90 S6        29.72S
CAMDEN         MOCLDY    72  59  64 S9G16     29.74R
TEXARKANA      TSTM      67  62  84 W17G28    29.75R
EL DORADO      CLOUDY    69  57  65 SE12G18   29.76S
DE QUEEN       CLOUDY    64  62  93 VRB3      29.70R
$$

ARZ056-057-069-300400-
SOUTHEAST ARKANSAS

CITY           SKY/WX    TMP DP  RH WIND       PRES   REMARKS
PINE BLUFF     CLOUDY    73  62  68 S14       29.72F
STUTTGART      CLOUDY    75  55  50 S10       29.73F
MONTICELLO     CLOUDY    69  56  62 S10G17    29.71F

$$






USA.gov is the U.S. government's official web portal to all federal, state and local government web resources and services.